Retour au catalogue

YUNYAO-1 55

ActifMétéoSSO
NORAD 63291·PAYLOAD·🇨🇳 China
Ce nom de satellite n'a pas encore été confirmé par des sources officielles.

Lancé Mar 17, 2025 depuis Jiuquan Satellite Launch Center

Loading…

Prochains Passages (prochaines 24 heures)

TLE

FraisSource: Space-Track

Époque: Sep 14, 2026, 20:15 UTC

1 63291U 25055A   26257.84391535  .00006411  00000-0  35701-3 0  9999
2 63291  97.6654  38.2126 0024383 149.8110 210.4532 15.13731266 82615

Suivez YUNYAO-1 55 en temps réel avec AllMySat

Download on the App Store